Retour au catalogue

COSMOS 1389

ActifMilitaireLEO
NORAD 13376·PAYLOAD·🇷🇺 Russia

Lancé Jul 21, 1982 depuis Plesetsk Cosmodrome

Loading…

Prochains Passages (prochaines 24 heures)

TLE

FraisSource: Space-Track

Époque: Sep 14, 2026, 04:16 UTC

1 13376U 82073B   26257.17832997  .00000005  00000-0  13096-3 0  9995
2 13376  74.0188 343.3151 0041401 131.7321 239.4889 12.55405645 23328

Suivez COSMOS 1389 en temps réel avec AllMySat

Download on the App Store